Date String (YYYY-MM-DD hh:mm:ss) UTC,Instrument flags,absolute air pressure of the measurement (hPa),sample flow rate (lpm),inlet stack bypass flow (lpm),air temperature of the measurement (°C),ambient temperature measured by the external sensor (°C),aerosol sample conditioner tube jacket temperature (°C),OPC LED temperature (°C),internal box temperature (°C),relative humidity of the measurement (%),span deviation,mass concentration of particles derived from Lorenz-Mie calculation of OPC scattering (μg/m³),mass concentration of particles derived from Lorenz-Mie calculation of OPC scattering (μg/m³),mass concentration of particles derived from Lorenz-Mie calculation of OPC scattering (μg/m³)
DateTimeUTC,F1_M11,P_M11,Q1_M11,Q2_M11,T1_M11,T2_M11,T3_M11,T4_M11,T5_M11,U1_M11,ZSPAN_M11,X0_M11,X2_M11,X1_M11
2023-07-17 06:00:00,SystemResetWarning,0833.4,4.99,000.00,029.3,027.7,000.0,037.6,031.0,23.4,-000.9,0015.29,0007.84,0007.10
2023-07-17 06:01:00,SystemResetWarning,0833.3,5.00,000.00,029.3,025.9,000.0,037.5,030.8,23.6,-000.8,0015.28,0007.82,0007.08
2023-07-17 06:02:00,SystemResetWarning,0833.2,5.01,000.00,029.2,025.3,000.0,037.4,030.5,23.7,-000.8,0015.01,0007.76,0007.06
2023-07-17 06:03:00,SystemResetWarning,0833.3,5.01,000.00,029.1,025.4,000.0,037.5,030.3,23.6,-000.7,0013.86,0007.72,0007.04
2023-07-17 06:04:00,SystemResetWarning,0833.3,5.00,000.00,029.0,025.8,000.0,037.5,030.4,23.5,-000.5,0013.50,0007.72,0007.02
2023-07-17 06:05:00,SystemResetWarning,0833.3,5.00,000.00,029.0,026.2,000.0,037.5,030.5,23.5,-000.5,0013.02,0007.68,0006.99
2023-07-17 06:06:00,SystemResetWarning,0833.3,5.00,000.00,029.0,026.6,000.0,037.5,030.5,23.6,-000.3,0012.57,0007.65,0006.97
2023-07-17 06:07:00,SystemResetWarning,0833.3,5.00,000.00,029.1,026.9,000.0,037.5,030.6,24.0,0000.3,0012.70,0007.66,0006.96
2023-07-17 06:08:00,SystemResetWarning,0833.4,5.00,000.00,029.1,027.2,000.0,037.5,030.7,24.2,0000.0,0012.91,0007.65,0006.94
2023-07-17 06:09:00,SystemResetWarning,0833.4,4.99,000.00,029.1,027.4,000.0,037.6,030.7,23.6,0000.2,0012.85,0007.60,0006.91
2023-07-17 06:10:00,SystemResetWarning,0833.4,5.00,000.00,029.1,027.6,000.0,037.6,030.8,23.4,0000.4,0012.83,0007.60,0006.88
2023-07-17 06:11:00,SystemResetWarning,0833.4,5.00,000.00,029.2,027.8,000.0,037.6,030.8,23.3,0000.7,0013.33,0007.56,0006.86
2023-07-17 06:12:00,SystemResetWarning,0833.4,5.00,000.00,029.2,027.9,000.0,037.6,030.9,23.1,0001.0,0013.21,0007.54,0006.86
2023-07-17 06:13:00,SystemResetWarning,0833.4,5.00,000.00,029.3,028.1,000.0,037.6,030.9,23.0,0001.2,0013.83,0007.55,0006.86
2023-07-17 06:14:00,SystemResetWarning,0833.4,5.00,000.00,029.3,028.2,000.0,037.7,031.0,22.5,0000.8,0014.85,0007.52,0006.85
2023-07-17 06:15:00,SystemResetWarning,0833.4,5.00,000.00,029.3,028.3,000.0,037.7,031.0,22.3,0000.4,0015.02,0007.50,0006.83
2023-07-17 06:16:00,SystemResetWarning,0833.4,4.99,000.00,029.4,027.8,000.0,037.7,031.0,22.3,0000.4,0015.13,0007.49,0006.82
2023-07-17 06:17:00,SystemResetWarning,0833.3,4.99,000.00,029.3,025.9,000.0,037.6,030.8,22.4,0000.3,0016.14,0007.49,0006.82
2023-07-17 06:18:00,SystemResetWarning,0833.2,5.02,000.00,029.3,025.3,000.0,037.5,030.6,22.4,0000.3,0016.23,0007.49,0006.81
2023-07-17 06:19:00,SystemResetWarning,0833.2,4.99,000.00,029.2,025.5,000.0,037.5,030.4,22.4,0000.1,0015.93,0007.46,0006.81
2023-07-17 06:20:00,SystemResetWarning,0833.3,4.99,000.00,029.1,025.9,000.0,037.5,030.4,22.3,-000.2,0015.75,0007.42,0006.79
2023-07-17 06:21:00,SystemResetWarning,0833.3,5.02,000.00,029.1,026.3,000.0,037.6,030.5,22.4,-000.4,0016.03,0007.38,0006.79
2023-07-17 06:22:00,SystemResetWarning,0833.4,5.00,000.00,029.1,026.6,000.0,037.6,030.6,22.6,-000.5,0016.04,0007.39,0006.79
2023-07-17 06:23:00,SystemResetWarning,0833.5,5.00,000.00,029.1,026.9,000.0,037.6,030.6,22.2,-000.6,0015.64,0007.37,0006.77
2023-07-17 06:24:00,SystemResetWarning,0833.4,5.00,000.00,029.1,027.2,000.0,037.6,030.7,22.0,-000.8,0015.85,0007.28,0006.69
2023-07-17 06:25:00,SystemResetWarning,0833.4,5.00,000.00,029.2,027.4,000.0,037.6,030.8,22.3,-000.8,0014.62,0007.17,0006.59
2023-07-17 06:26:00,SystemResetWarning,0833.4,4.98,000.00,029.2,027.6,000.0,037.6,030.8,22.5,-000.6,0014.30,0007.10,0006.56
2023-07-17 06:27:00,SystemResetWarning,0833.4,5.00,000.00,029.2,027.8,000.0,037.6,030.9,22.3,-000.5,0014.27,0007.04,0006.54
2023-07-17 06:28:00,SystemResetWarning,0833.4,5.00,000.00,029.3,027.9,000.0,037.7,030.9,22.2,-000.3,0013.75,0007.02,0006.49
2023-07-17 06:29:00,SystemResetWarning,0833.4,5.01,000.00,029.3,028.1,000.0,037.7,031.0,21.7,-000.3,0013.43,0006.90,0006.39
2023-07-17 06:30:00,SystemResetWarning,0833.4,5.00,000.00,029.3,028.2,000.0,037.7,031.0,20.3,-000.1,0013.30,0006.81,0006.28
2023-07-17 06:31:00,SystemResetWarning,0833.4,5.01,000.00,029.4,028.2,000.0,037.7,031.0,20.3,0000.2,0013.08,0006.72,0006.20
2023-07-17 06:32:00,SystemResetWarning,0833.4,5.00,000.00,029.4,027.8,000.0,037.7,031.1,20.9,0000.3,0012.93,0006.61,0006.09
2023-07-17 06:33:00,SystemResetWarning,0833.4,4.99,000.00,029.4,025.9,000.0,037.6,030.8,20.8,0000.4,0012.03,0006.49,0005.98
2023-07-17 06:34:00,SystemResetWarning,0833.4,5.01,000.00,029.3,025.3,000.0,037.5,030.6,21.1,0000.3,0011.82,0006.39,0005.88
2023-07-17 06:35:00,SystemResetWarning,0833.4,5.01,000.00,029.2,025.5,000.0,037.5,030.4,21.3,0000.2,0011.27,0006.39,0005.85
2023-07-17 06:36:00,SystemResetWarning,0833.4,5.00,000.00,029.1,025.8,000.0,037.5,030.4,21.2,0000.1,0012.29,0006.47,0005.88
2023-07-17 06:37:00,SystemResetWarning,0833.5,5.00,000.00,029.1,026.2,000.0,037.6,030.5,21.4,0000.1,0012.52,0006.52,0005.88
2023-07-17 06:38:00,SystemResetWarning,0833.4,5.00,000.00,029.1,026.6,000.0,037.6,030.6,23.1,0000.3,0012.45,0006.53,0005.87
2023-07-17 06:39:00,SystemResetWarning,0833.4,5.00,000.00,029.1,026.9,000.0,037.6,030.6,23.3,0000.3,0011.99,0006.50,0005.87
2023-07-17 06:40:00,SystemResetWarning,0833.4,4.99,000.00,029.1,027.2,000.0,037.6,030.7,22.7,0000.2,0011.71,0006.45,0005.84
2023-07-17 06:41:00,SystemResetWarning,0833.5,4.99,000.00,029.2,027.4,000.0,037.6,030.7,23.4,0000.4,0011.59,0006.32,0005.72
2023-07-17 06:42:00,SystemResetWarning,0833.5,5.01,000.00,029.2,027.6,000.0,037.6,030.8,23.3,0000.3,0011.62,0006.23,0005.61
2023-07-17 06:43:00,SystemResetWarning,0833.5,5.01,000.00,029.2,027.8,000.0,037.6,030.8,23.3,-000.2,0011.52,0006.21,0005.56
2023-07-17 06:44:00,SystemResetWarning,0833.5,5.00,000.00,029.3,027.9,000.0,037.7,030.9,23.4,-000.3,0011.52,0006.21,0005.54
2023-07-17 06:45:00,SystemResetWarning,0833.6,5.00,000.00,029.3,028.0,000.0,037.7,030.9,23.4,-000.6,0011.98,0006.23,0005.55
2023-07-17 06:46:00,SystemResetWarning,0833.6,5.00,000.00,029.3,028.1,000.0,037.7,031.0,23.4,-001.1,0012.06,0006.17,0005.53
2023-07-17 06:47:00,SystemResetWarning,0833.6,4.99,000.00,029.4,028.2,000.0,037.7,031.0,23.4,-000.8,0011.24,0006.07,0005.47
2023-07-17 06:48:00,SystemResetWarning,0833.6,5.00,000.00,029.4,027.8,000.0,037.7,031.0,23.3,0000.1,0011.10,0006.01,0005.42
2023-07-17 06:49:00,SystemResetWarning,0833.5,5.00,000.00,029.4,025.8,000.0,037.6,030.8,23.3,-000.2,0011.50,0006.05,0005.46
2023-07-17 06:50:00,SystemResetWarning,0833.5,5.01,000.00,029.3,025.2,000.0,037.5,030.6,23.0,-000.4,0011.86,0006.07,0005.46
2023-07-17 06:51:00,SystemResetWarning,0833.5,5.01,000.00,029.2,025.5,000.0,037.5,030.4,22.9,-000.5,0012.27,0006.18,0005.53
2023-07-17 06:52:00,SystemResetWarning,0833.4,4.99,000.00,029.1,025.8,000.0,037.6,030.4,22.7,-000.9,0012.52,0006.40,0005.72
2023-07-17 06:53:00,SystemResetWarning,0833.5,4.99,000.00,029.1,026.2,000.0,037.6,030.5,22.9,-000.7,0012.65,0006.59,0005.91
2023-07-17 06:54:00,SystemResetWarning,0833.5,5.00,000.00,029.1,026.6,000.0,037.6,030.6,22.8,-000.6,0012.88,0006.76,0006.11
2023-07-17 06:55:00,SystemResetWarning,0833.6,5.01,000.00,029.1,026.9,000.0,037.6,030.7,22.5,-000.6,0013.09,0006.92,0006.27
2023-07-17 06:56:00,SystemResetWarning,0833.6,5.00,000.00,029.1,027.2,000.0,037.6,030.7,22.4,-000.3,0012.86,0007.02,0006.38
2023-07-17 06:57:00,SystemResetWarning,0833.6,4.99,000.00,029.2,027.5,000.0,037.6,030.8,22.4,0000.4,0012.90,0007.16,0006.48
2023-07-17 06:58:00,SystemResetWarning,0833.6,4.99,000.00,029.2,027.6,000.0,037.6,030.8,22.5,0000.4,0014.32,0007.32,0006.61
2023-07-17 06:59:00,SystemResetWarning,0833.6,5.01,000.00,029.2,027.8,000.0,037.7,030.9,22.3,0000.0,0015.20,0007.42,0006.70
